RYR86DX EIDW-EGGW

Flight info

Callsign RYR86DX
Flight time 0h 58m
Altitude 33000
Route ENDEQ3J ENDEQ Q36 NOSLO Z197 LISTO
Aircraft B38M/M-SDE1FGHILORVWXY/HB1

Departure

Time 2026-05-07 16:41
Airport Dublin Airport (EIDW)

Arrival

Time 2026-05-07 17:40
Airport London Luton Airport (EGGW)
Time Latitude Longitude Altitude Speed Heading
2026-05-07 15:43 53.43014 -6.25074 213 ft 0 kts
2026-05-07 16:30 53.42994 -6.25077 213 ft 4 kts
2026-05-07 16:30 53.42972 -6.25081 216 ft 4 kts 360°
2026-05-07 16:30 53.42957 -6.25068 213 ft 4 kts 284°
2026-05-07 16:30 53.42954 -6.25026 213 ft 4 kts 275°
2026-05-07 16:31 53.42951 -6.24981 213 ft 4 kts 275°
2026-05-07 16:31 53.42949 -6.24936 213 ft 4 kts 275°
2026-05-07 16:31 53.42946 -6.24891 213 ft 4 kts 275°
2026-05-07 16:31 53.42944 -6.24846 213 ft 4 kts 275°
2026-05-07 16:32 53.42941 -6.24801 213 ft 4 kts 275°
2026-05-07 16:32 53.42939 -6.24755 213 ft 4 kts 275°
2026-05-07 16:32 53.42938 -6.24743 213 ft 0 kts 275°
2026-05-07 16:35 53.42938 -6.24745 213 ft 1 kts 275°
2026-05-07 16:35 53.42942 -6.24808 213 ft 11 kts 276°
2026-05-07 16:35 53.42952 -6.24979 213 ft 17 kts 274°
2026-05-07 16:35 53.42961 -6.25159 213 ft 13 kts 275°
2026-05-07 16:36 53.42996 -6.25278 213 ft 13 kts 327°
2026-05-07 16:36 53.43082 -6.25344 215 ft 15 kts 336°
2026-05-07 16:36 53.43174 -6.25388 217 ft 8 kts 17°
2026-05-07 16:36 53.43206 -6.25302 217 ft 10 kts 76°
2026-05-07 16:37 53.43206 -6.25172 213 ft 12 kts 95°
2026-05-07 16:37 53.43198 -6.25016 213 ft 15 kts 95°
2026-05-07 16:37 53.43187 -6.24834 213 ft 16 kts 95°
2026-05-07 16:37 53.43186 -6.24697 219 ft 11 kts 75°
2026-05-07 16:38 53.43191 -6.24557 213 ft 13 kts 94°
2026-05-07 16:38 53.43209 -6.24430 216 ft 12 kts 37°
2026-05-07 16:38 53.43293 -6.24401 217 ft 14 kts 14°
2026-05-07 16:38 53.43335 -6.24268 213 ft 15 kts 89°
2026-05-07 16:39 53.43324 -6.24079 213 ft 17 kts 95°
2026-05-07 16:39 53.43321 -6.23902 219 ft 11 kts 67°
2026-05-07 16:39 53.43367 -6.23856 213 ft 9 kts
2026-05-07 16:39 53.43448 -6.23847 211 ft 14 kts 350°
2026-05-07 16:40 53.43487 -6.23920 211 ft 0 kts 278°
2026-05-07 16:40 53.43493 -6.24005 215 ft 35 kts 276°
2026-05-07 16:40 53.43540 -6.24886 215 ft 113 kts 276°
2026-05-07 16:41 53.43645 -6.26568 266 ft 169 kts 276°
2026-05-07 16:41 53.43790 -6.28623 824 ft 187 kts 274°
2026-05-07 16:41 53.44038 -6.30879 1464 ft 207 kts 291°
2026-05-07 16:41 53.44929 -6.32841 2329 ft 218 kts 319°
2026-05-07 16:42 53.46226 -6.34228 3264 ft 224 kts 338°
2026-05-07 16:42 53.47765 -6.34618 4241 ft 225 kts 355°
2026-05-07 16:42 53.49384 -6.34721 4962 ft 243 kts 359°
2026-05-07 16:42 53.51076 -6.33883 5572 ft 266 kts 36°
2026-05-07 16:43 53.52275 -6.31497 6494 ft 276 kts 67°
2026-05-07 16:43 53.52607 -6.28320 7369 ft 281 kts 94°
2026-05-07 16:43 53.52526 -6.25034 8283 ft 288 kts 92°
2026-05-07 16:43 53.52470 -6.21648 9295 ft 293 kts 92°
2026-05-07 16:44 53.52413 -6.18193 10197 ft 298 kts 92°
2026-05-07 16:44 53.52354 -6.14686 11093 ft 302 kts 92°
2026-05-07 16:44 53.52294 -6.11121 11990 ft 307 kts 92°
2026-05-07 16:44 53.52211 -6.07504 12837 ft 312 kts 97°
2026-05-07 16:45 53.51764 -6.03936 13686 ft 315 kts 105°
2026-05-07 16:45 53.51232 -6.00341 14420 ft 319 kts 105°
2026-05-07 16:45 53.50700 -5.96687 15183 ft 323 kts 105°
2026-05-07 16:45 53.50166 -5.93001 15927 ft 326 kts 105°
2026-05-07 16:46 53.49627 -5.89282 16656 ft 330 kts 105°
2026-05-07 16:46 53.49079 -5.85501 17388 ft 334 kts 104°
2026-05-07 16:46 53.48753 -5.82965 17857 ft 336 kts 103°
2026-05-07 16:46 53.48273 -5.79092 18516 ft 340 kts 103°
2026-05-07 16:47 53.47783 -5.75185 19128 ft 343 kts 103°
2026-05-07 16:47 53.47285 -5.71248 19726 ft 346 kts 103°
2026-05-07 16:47 53.46781 -5.67289 20330 ft 348 kts 102°
2026-05-07 16:47 53.46272 -5.63301 20917 ft 351 kts 102°
2026-05-07 16:48 53.45757 -5.59273 21492 ft 354 kts 102°
2026-05-07 16:48 53.45236 -5.55214 22070 ft 357 kts 102°
2026-05-07 16:48 53.44719 -5.51175 22630 ft 360 kts 101°
2026-05-07 16:48 53.44479 -5.46984 23037 ft 365 kts 91°
2026-05-07 16:49 53.44387 -5.42722 23400 ft 363 kts 91°
2026-05-07 16:49 53.44287 -5.38480 23902 ft 366 kts 91°
2026-05-07 16:49 53.44181 -5.34173 24357 ft 368 kts 92°
2026-05-07 16:49 53.44073 -5.29874 24839 ft 370 kts 91°
2026-05-07 16:50 53.43963 -5.25531 25303 ft 372 kts 91°
2026-05-07 16:50 53.43850 -5.21174 25775 ft 374 kts 91°
2026-05-07 16:50 53.43731 -5.16802 26223 ft 377 kts 92°
2026-05-07 16:50 53.43595 -5.12402 26678 ft 378 kts 92°
2026-05-07 16:51 53.43460 -5.08044 27222 ft 377 kts 92°
2026-05-07 16:51 53.43324 -5.03674 27775 ft 375 kts 91°
2026-05-07 16:51 53.43186 -4.99303 28317 ft 374 kts 91°
2026-05-07 16:51 53.43046 -4.94922 28592 ft 380 kts 91°
2026-05-07 16:52 53.42901 -4.90414 28772 ft 388 kts 91°
2026-05-07 16:52 53.42754 -4.85899 29243 ft 388 kts 91°
2026-05-07 16:52 53.42605 -4.81390 29752 ft 387 kts 91°
2026-05-07 16:52 53.42455 -4.76900 30235 ft 385 kts 91°
2026-05-07 16:53 53.42306 -4.72447 30414 ft 392 kts 91°
2026-05-07 16:53 53.42149 -4.67837 30517 ft 400 kts 91°
2026-05-07 16:53 53.41988 -4.63181 30848 ft 401 kts 91°
2026-05-07 16:53 53.41826 -4.58516 31240 ft 400 kts 91°
2026-05-07 16:54 53.41662 -4.53868 31642 ft 399 kts 91°
2026-05-07 16:54 53.41497 -4.49221 32036 ft 398 kts 91°
2026-05-07 16:54 53.41329 -4.44577 32301 ft 402 kts 91°
2026-05-07 16:54 53.41157 -4.39870 32416 ft 408 kts 91°
2026-05-07 16:55 53.40982 -4.35109 32728 ft 409 kts 91°
2026-05-07 16:55 53.40806 -4.30358 33008 ft 410 kts 91°
2026-05-07 16:55 53.40625 -4.25548 32999 ft 418 kts 91°
2026-05-07 16:56 53.40245 -4.15630 32981 ft 434 kts 91°
2026-05-07 16:56 53.39638 -4.00127 32975 ft 454 kts 91°
2026-05-07 16:57 53.39209 -3.89538 32978 ft 455 kts 92°
2026-05-07 16:57 53.38771 -3.78951 32981 ft 456 kts 92°
2026-05-07 16:58 53.38327 -3.68414 32988 ft 456 kts 92°
2026-05-07 16:58 53.37258 -3.57938 32983 ft 459 kts 101°
2026-05-07 16:59 53.35840 -3.47515 32986 ft 459 kts 101°
2026-05-07 16:59 53.34387 -3.37070 32992 ft 460 kts 103°
2026-05-07 17:00 53.32684 -3.26729 32994 ft 460 kts 104°
2026-05-07 17:00 53.30989 -3.16374 33016 ft 461 kts 104°
2026-05-07 17:01 53.29298 -3.06074 33021 ft 461 kts 104°
2026-05-07 17:01 53.27591 -2.95739 33024 ft 461 kts 104°
2026-05-07 17:02 53.25870 -2.85379 33022 ft 462 kts 104°
2026-05-07 17:02 53.24083 -2.75062 33020 ft 462 kts 105°
2026-05-07 17:03 53.22295 -2.64827 33013 ft 462 kts 105°
2026-05-07 17:03 53.20488 -2.54534 33010 ft 462 kts 105°
2026-05-07 17:04 53.18671 -2.44243 33011 ft 462 kts 106°
2026-05-07 17:04 53.16846 -2.33961 33012 ft 463 kts 106°
2026-05-07 17:05 53.14889 -2.23732 33005 ft 463 kts 115°
2026-05-07 17:05 53.13143 -2.19254 33012 ft 460 kts 133°
2026-05-07 17:05 53.10754 -2.15748 33025 ft 459 kts 144°
2026-05-07 17:06 53.08242 -2.12586 33010 ft 445 kts 144°
2026-05-07 17:06 53.05779 -2.09517 33026 ft 437 kts 144°
2026-05-07 17:06 53.03411 -2.06605 33001 ft 421 kts 145°
2026-05-07 17:06 53.01066 -2.03748 32683 ft 414 kts 145°
2026-05-07 17:07 52.98746 -2.00933 32150 ft 413 kts 145°
2026-05-07 17:07 52.96427 -1.98124 31630 ft 412 kts 146°
2026-05-07 17:07 52.94122 -1.95337 31195 ft 409 kts 146°
2026-05-07 17:07 52.91828 -1.92567 30758 ft 406 kts 146°
2026-05-07 17:08 52.89551 -1.89820 30327 ft 403 kts 146°
2026-05-07 17:08 52.87283 -1.87088 29863 ft 401 kts 146°
2026-05-07 17:08 52.85033 -1.84381 29385 ft 397 kts 146°
2026-05-07 17:08 52.82811 -1.81711 28972 ft 393 kts 146°
2026-05-07 17:09 52.80628 -1.79092 28559 ft 389 kts 146°
2026-05-07 17:09 52.78443 -1.76474 28161 ft 386 kts 146°
2026-05-07 17:09 52.76279 -1.73883 27746 ft 382 kts 146°
2026-05-07 17:09 52.74085 -1.71424 27298 ft 378 kts 154°
2026-05-07 17:10 52.71758 -1.69452 26911 ft 375 kts 155°
2026-05-07 17:10 52.69458 -1.67464 26552 ft 371 kts 155°
2026-05-07 17:10 52.67178 -1.65500 26184 ft 368 kts 155°
2026-05-07 17:10 52.64911 -1.63550 25805 ft 366 kts 155°
2026-05-07 17:11 52.62662 -1.61618 25442 ft 364 kts 155°
2026-05-07 17:11 52.60422 -1.59697 25064 ft 362 kts 155°
2026-05-07 17:11 52.58199 -1.57792 24699 ft 360 kts 155°
2026-05-07 17:11 52.55980 -1.55894 24335 ft 358 kts 154°
2026-05-07 17:12 52.53777 -1.54011 23962 ft 356 kts 154°
2026-05-07 17:12 52.51580 -1.52135 23611 ft 355 kts 154°
2026-05-07 17:12 52.49394 -1.50271 23219 ft 353 kts 154°
2026-05-07 17:12 52.47219 -1.48419 22833 ft 350 kts 154°
2026-05-07 17:13 52.45063 -1.46584 22472 ft 347 kts 154°
2026-05-07 17:13 52.42957 -1.44794 22135 ft 344 kts 154°
2026-05-07 17:13 52.40816 -1.42976 21786 ft 341 kts 154°
2026-05-07 17:13 52.38745 -1.41219 21465 ft 338 kts 154°
2026-05-07 17:14 52.36662 -1.39455 21137 ft 335 kts 154°
2026-05-07 17:14 52.34592 -1.37703 20793 ft 332 kts 154°
2026-05-07 17:14 52.32540 -1.35967 20459 ft 330 kts 154°
2026-05-07 17:14 52.30506 -1.34249 20133 ft 328 kts 154°
2026-05-07 17:15 52.28519 -1.32421 19737 ft 330 kts 151°
2026-05-07 17:15 52.26539 -1.30532 19397 ft 328 kts 151°
2026-05-07 17:15 52.24587 -1.28685 19068 ft 327 kts 152°
2026-05-07 17:15 52.22623 -1.26835 18715 ft 325 kts 151°
2026-05-07 17:16 52.20658 -1.24989 18374 ft 324 kts 152°
2026-05-07 17:16 52.18702 -1.23154 17978 ft 323 kts 152°
2026-05-07 17:16 52.16754 -1.21329 17593 ft 322 kts 152°
2026-05-07 17:16 52.14816 -1.19516 17244 ft 319 kts 152°
2026-05-07 17:17 52.12898 -1.17722 16890 ft 317 kts 152°
2026-05-07 17:17 52.11005 -1.15955 16542 ft 316 kts 152°
2026-05-07 17:17 52.09104 -1.14181 16203 ft 314 kts 152°
2026-05-07 17:17 52.07214 -1.12419 15860 ft 312 kts 152°
2026-05-07 17:18 52.05333 -1.10668 15518 ft 310 kts 152°
2026-05-07 17:18 52.03462 -1.08927 15178 ft 309 kts 152°
2026-05-07 17:18 52.01696 -1.06991 14907 ft 307 kts 136°
2026-05-07 17:18 52.00506 -1.04136 14715 ft 308 kts 111°
2026-05-07 17:19 52.00111 -1.00729 14562 ft 309 kts 89°
2026-05-07 17:19 52.00291 -0.97292 14401 ft 310 kts 84°
2026-05-07 17:19 52.00517 -0.93814 14215 ft 309 kts 83°
2026-05-07 17:19 52.00752 -0.90346 14036 ft 308 kts 83°
2026-05-07 17:20 52.00992 -0.86897 13828 ft 307 kts 83°
2026-05-07 17:20 52.01236 -0.83450 13625 ft 307 kts 83°
2026-05-07 17:20 52.01479 -0.80022 13424 ft 305 kts 83°
2026-05-07 17:20 52.01722 -0.76601 13236 ft 304 kts 82°
2026-05-07 17:21 52.02320 -0.73343 12999 ft 301 kts 59°
2026-05-07 17:21 52.03620 -0.70730 12832 ft 298 kts 44°
2026-05-07 17:21 52.05056 -0.68291 12666 ft 299 kts 45°
2026-05-07 17:21 52.06495 -0.65861 12489 ft 298 kts 45°
2026-05-07 17:22 52.07936 -0.63447 12300 ft 297 kts 44°
2026-05-07 17:22 52.09378 -0.61040 12119 ft 296 kts 44°
2026-05-07 17:22 52.10816 -0.58646 11935 ft 295 kts 44°
2026-05-07 17:22 52.12249 -0.56261 11755 ft 294 kts 44°
2026-05-07 17:23 52.13681 -0.53877 11579 ft 294 kts 44°
2026-05-07 17:23 52.15099 -0.51512 11390 ft 289 kts 44°
2026-05-07 17:23 52.16489 -0.49194 11214 ft 282 kts 44°
2026-05-07 17:23 52.17842 -0.46936 11040 ft 275 kts 44°
2026-05-07 17:24 52.19161 -0.44732 10872 ft 268 kts 44°
2026-05-07 17:24 52.20434 -0.42614 10706 ft 261 kts 42°
2026-05-07 17:24 52.21960 -0.41087 10502 ft 256 kts 13°
2026-05-07 17:24 52.23714 -0.40781 10375 ft 254 kts 359°
2026-05-07 17:25 52.25485 -0.40759 10226 ft 255 kts 359°
2026-05-07 17:25 52.27260 -0.40760 10065 ft 254 kts 358°
2026-05-07 17:25 52.29032 -0.40777 9905 ft 254 kts 358°
2026-05-07 17:25 52.30798 -0.40805 9732 ft 253 kts 358°
2026-05-07 17:26 52.32563 -0.40842 9566 ft 253 kts 358°
2026-05-07 17:26 52.34292 -0.40408 9363 ft 254 kts 23°
2026-05-07 17:26 52.35670 -0.38703 9193 ft 254 kts 52°
2026-05-07 17:26 52.36571 -0.36217 9089 ft 256 kts 69°
2026-05-07 17:27 52.36861 -0.33368 8923 ft 254 kts 95°
2026-05-07 17:27 52.36376 -0.30627 8761 ft 251 kts 121°
2026-05-07 17:27 52.35250 -0.28487 8612 ft 249 kts 144°
2026-05-07 17:27 52.33820 -0.26893 8455 ft 249 kts 151°
2026-05-07 17:28 52.32196 -0.26099 8278 ft 244 kts 181°
2026-05-07 17:28 52.30577 -0.26723 8140 ft 240 kts 208°
2026-05-07 17:28 52.29147 -0.28139 8086 ft 241 kts 213°
2026-05-07 17:28 52.27737 -0.29639 8002 ft 243 kts 214°
2026-05-07 17:29 52.26338 -0.31132 7765 ft 244 kts 214°
2026-05-07 17:29 52.24918 -0.32649 7510 ft 243 kts 214°
2026-05-07 17:29 52.23504 -0.34163 7266 ft 242 kts 214°
2026-05-07 17:29 52.22104 -0.35662 7017 ft 241 kts 214°
2026-05-07 17:30 52.20703 -0.37163 6770 ft 240 kts 213°
2026-05-07 17:30 52.19783 -0.38148 6610 ft 239 kts 214°
2026-05-07 17:30 52.18392 -0.39631 6453 ft 237 kts 214°
2026-05-07 17:30 52.17016 -0.41102 6323 ft 236 kts 214°
2026-05-07 17:31 52.15641 -0.42569 6189 ft 236 kts 213°
2026-05-07 17:31 52.14271 -0.44032 6059 ft 236 kts 213°
2026-05-07 17:31 52.12897 -0.45498 5931 ft 235 kts 213°
2026-05-07 17:31 52.11530 -0.46957 5799 ft 235 kts 214°
2026-05-07 17:32 52.10164 -0.48418 5631 ft 235 kts 213°
2026-05-07 17:32 52.08796 -0.49885 5401 ft 236 kts 214°
2026-05-07 17:32 52.07427 -0.51357 5155 ft 235 kts 213°
2026-05-07 17:32 52.06064 -0.52828 4917 ft 235 kts 213°
2026-05-07 17:33 52.04707 -0.54299 4670 ft 234 kts 213°
2026-05-07 17:33 52.03354 -0.55764 4423 ft 234 kts 213°
2026-05-07 17:33 52.01996 -0.57234 4159 ft 234 kts 213°
2026-05-07 17:33 52.00642 -0.58695 3934 ft 234 kts 213°
2026-05-07 17:34 51.99284 -0.60155 3684 ft 234 kts 214°
2026-05-07 17:34 51.97944 -0.61590 3441 ft 234 kts 214°
2026-05-07 17:34 51.96524 -0.62855 3179 ft 233 kts 195°
2026-05-07 17:34 51.94939 -0.62895 3029 ft 228 kts 166°
2026-05-07 17:35 51.93410 -0.62135 3013 ft 231 kts 161°
2026-05-07 17:35 51.91894 -0.61295 2998 ft 226 kts 161°
2026-05-07 17:35 51.90450 -0.60494 2992 ft 213 kts 160°
2026-05-07 17:35 51.89061 -0.59725 3063 ft 208 kts 160°
2026-05-07 17:36 51.87747 -0.59000 3062 ft 194 kts 161°
2026-05-07 17:36 51.86486 -0.58306 3014 ft 190 kts 160°
2026-05-07 17:36 51.85322 -0.57370 2893 ft 186 kts 135°
2026-05-07 17:36 51.84747 -0.55616 2669 ft 171 kts 97°
2026-05-07 17:37 51.84699 -0.53837 2576 ft 151 kts 85°
2026-05-07 17:37 51.84848 -0.52169 2409 ft 149 kts 77°
2026-05-07 17:37 51.85091 -0.50543 2186 ft 148 kts 74°
2026-05-07 17:37 51.85361 -0.48937 1971 ft 148 kts 73°
2026-05-07 17:38 51.85638 -0.47335 1776 ft 147 kts 73°
2026-05-07 17:38 51.85910 -0.45765 1551 ft 147 kts 74°
2026-05-07 17:38 51.86183 -0.44178 1364 ft 146 kts 75°
2026-05-07 17:38 51.86455 -0.42593 1268 ft 145 kts 75°
2026-05-07 17:39 51.86739 -0.41023 1084 ft 144 kts 74°
2026-05-07 17:39 51.87005 -0.39468 788 ft 142 kts 76°
2026-05-07 17:39 51.87272 -0.37947 548 ft 134 kts 76°
2026-05-07 17:39 51.87497 -0.36632 529 ft 105 kts 73°
2026-05-07 17:40 51.87609 -0.36001 518 ft 25 kts 72°
2026-05-07 17:40 51.87696 -0.35928 519 ft 16 kts 346°
2026-05-07 17:40 51.87781 -0.36021 520 ft 11 kts 291°
2026-05-07 17:40 51.87776 -0.36131 521 ft 12 kts 256°
2026-05-07 17:41 51.87745 -0.36300 520 ft 18 kts 253°
2026-05-07 17:41 51.87709 -0.36502 522 ft 19 kts 253°
2026-05-07 17:41 51.87674 -0.36714 525 ft 20 kts 254°
2026-05-07 17:41 51.87636 -0.36927 528 ft 20 kts 253°
2026-05-07 17:42 51.87595 -0.37176 524 ft 24 kts 254°
2026-05-07 17:42 51.87583 -0.37371 524 ft 15 kts 288°
2026-05-07 17:42 51.87662 -0.37493 524 ft 18 kts 322°
2026-05-07 17:42 51.87732 -0.37680 523 ft 20 kts 295°
2026-05-07 17:43 51.87784 -0.37862 526 ft 14 kts 295°
2026-05-07 17:43 51.87844 -0.37985 526 ft 15 kts 326°
2026-05-07 17:43 51.87924 -0.38020 526 ft 10 kts
2026-05-07 17:43 51.87972 -0.37994 526 ft 6 kts 31°
2026-05-07 17:44 51.87977 -0.37953 526 ft 4 kts 107°
2026-05-07 17:44 51.87962 -0.37912 526 ft 1 kts 129°
2026-05-07 17:44 51.87958 -0.37904 526 ft 0 kts 128°